Regional Weather Roundup
Issued by NWS

Home | Current Version | Previous Version | Graphics & Text | Print | Product List | Glossary On
Versions: 1 2 3 4 5 6 7 8 9 10 11 12 13 14 15 16 17 18 19 20 21 22 23 24 25 26 27 28 29 30 31 32 33 34 35 36 37 38 39 40 41 42 43 44 45 46 47 48 49 50
000
ASUS43 KLOT 200900
RWRIL

ILLINOIS REGIONAL WEATHER ROUNDUP
NATIONAL WEATHER SERVICE CHICAGO/ROMEOVILLE IL
400 AM CDT WED AUG 20 2014

NOTE: "FAIR" INDICATES FEW OR NO CLOUDS BELOW 12,000 FEET WITH NO
SIGNIFICANT WEATHER AND/OR OBSTRUCTIONS TO VISIBILITY.

* THESE STATIONS ARE NOT UNDER NWS QUALITY CONTROL. THEY ALSO MAY NOT
  REPORT WEATHER SUCH AS PRECIPITATION OR FOG.

ILZ001-002-007-009-015-016-024-201000-
NORTHWEST ILLINOIS

CITY           SKY/WX    TMP DP  RH WIND       PRES   REMARKS
MOLINE         CLEAR     64  62  93 CALM      29.82F
STERLING*      CLEAR     64  61  88 W3        29.83F
$$

ILZ003-004-008-010-011-017-018-201000-
NORTH CENTRAL ILLINOIS

CITY           SKY/WX    TMP DP  RH WIND       PRES   REMARKS
ROCKFORD       PTCLDY    64  60  87 CALM      29.84R
FREEPORT*      PTCLDY    65  62  89 W6        29.85S
ROCHELLE*      CLEAR     60  58  94 SW5       29.84S
$$

ILZ005-006-012>014-019>023-201000-
NORTHEAST ILLINOIS

CITY           SKY/WX    TMP DP  RH WIND       PRES   REMARKS
CHICAGO-OHARE  CLEAR     68  60  75 W5        29.81R
CHICAGO-MIDWAY CLEAR     70  65  84 W5        29.81R
AURORA         CLEAR     62  59  90 CALM      29.83R
WAUKEGAN       CLEAR     65  62  90 SW5       29.79R
DUPAGE AIRPORT CLEAR     65  62  90 W6        29.82R
WHEELING       CLEAR     69  63  81 SW3       29.82R
NORTHERLY ISL    N/A     72  63  73 W5          N/A
$$

LMZ740>746-201000-
SOUTHERN LAKE MICHIGAN

STATION/POSITION SKY/WX   TEMP    WIND        PRES    VSBY  WAVE
                          AIR SEA DIR/SP/G                  HT/PER
                          (F)     (DEG/KT/KT) (MB)    (MI)  (FT/S)
SOUTHERN BUOY              68 66  280/  8/  8 1008.0R         1
WAUKEGAN HARBOR            70     270/  5/  7   N/A
HARRISON CRIB              73     250/  9/ 10   N/A
BURNHAM HARBOR             72     270/  5/  7   N/A
CALUMET HARBOR             70     220/  2/  5 1008.2R
BURNS HARBOR               72     240/  8/  9   N/A
MICHIGAN CITY              72     210/ 11/ 14   N/A
MICHIGAN CITY 6N           71 70  260/  8/ 10   N/A           1/ 2
ST. JOSEPH                 70 70  260/  8/ 10   N/A           1/ 2
$$

ILZ025>027-034>036-040-047-049-050-058-095>099-201000-
WEST-CENTRAL ILLINOIS

CITY           SKY/WX    TMP DP  RH WIND       PRES   REMARKS
QUINCY         PTCLDY    71  69  93 CALM      29.85R
GALESBURG*     CLEAR     60  60  99 CALM      29.84F
MACOMB*        PTCLDY    62  62 100 CALM      29.86S
$$

ILZ028>032-037-038-041>044-048-051>054-059>061-201000-
CENTRAL ILLINOIS

CITY           SKY/WX    TMP DP  RH WIND       PRES   REMARKS
DECATUR        CLEAR     73  70  90 NW6       29.85R
PEORIA         CLEAR     67  63  87 CALM      29.84S
SPRINGFIELD    CLEAR     68  67  96 S3        29.84R FOG
TAYLORVILLE    NOT AVBL
$$

ILZ033-039-045-046-055>057-062-063-201000-
EAST-CENTRAL ILLINOIS

CITY           SKY/WX    TMP DP  RH WIND       PRES   REMARKS
CHAMPAIGN      FOG       64  63  96 CALM      29.86R VSB 1/4
MATTOON        CLEAR     71  69  93 SW5       29.85R
$$

ILZ079-100>102-201000-
SOUTHWEST ILLINOIS

CITY           SKY/WX    TMP DP  RH WIND       PRES   REMARKS
BELLEVILLE     CLEAR     71  71 100 CALM      29.85S FOG
CAHOKIA*       CLEAR     70  69  97 CALM      29.85R
SPARTA*        CLEAR     68  67  98 CALM      29.87R
$$

ILZ064>066-069>071-074>076-080>082-084>086-088>090-092>094-201000-
SOUTH-CENTRAL ILLINOIS

CITY           SKY/WX    TMP DP  RH WIND       PRES   REMARKS
CARBONDALE     CLEAR     68  66  93 CALM      29.86R
MT. VERNON     CLEAR     66  63  88 CALM      29.87S
SALEM*           N/A     71  70  98 CALM      29.87R FOG
$$

ILZ067-068-072-073-078-083-087-091-201000-
SOUTHEAST ILLINOIS

CITY           SKY/WX    TMP DP  RH WIND       PRES   REMARKS
LAWRENCEVILLE  CLEAR     70  69  97 S3        29.86S FOG
HARRISBURG*    CLEAR     67  67 100 CALM      29.88R
ROBINSON*      FOG       71  71  98 CALM      29.86S VSB 1/4
$$

ABBREVIATIONS USED IN REMARKS
   TC - TEMPERATURE IN CELSIUS
  WCI - WIND CHILL INDEX
   HX - HEAT INDEX
  VSB - VISIBILITY
$$




USA.gov is the U.S. government's official web portal to all federal, state and local government web resources and services.